Wappingers Falls, NY

12:04 AM EST on February 20, 2017 (GMT -0500)
Dutchess County

Weather History for KPOU - February, 2015

Change the Weather History Date:

Saturday, February 28, 2015

  Actual Average Record
Temperature  
Mean Temperature 11 °F 32 °F  
Max Temperature 29 °F 43 °F 64 °F (2016)
Min Temperature -7 °F 20 °F -7 °F (2015)
Degree Days  
Heating Degree Days 54 33  
Month to date heating degree days 1374 1018  
Since 1 July heating degree days 4685 4571  
Cooling Degree Days 0 0  
Month to date cooling degree days 0 0  
Year to date cooling degree days 0 0  
Moisture  
Dew Point -2 °F    
Average Humidity 54    
Maximum Humidity 79    
Minimum Humidity 29    
Precipitation  
Precipitation 0.00 in 0.10 in 1.10 in (1958)
Month to date precipitation 1.36 2.66  
Year to date precipitation 4.30 5.74  
Sea Level Pressure  
Sea Level Pressure 30.74 in    
Wind  
Wind Speed 0 mph (SE)    
Max Wind Speed 7 mph    
Max Gust Speed 9 mph    
Visibility 10 miles    
Events      
T = Trace of Precipitation, MM = Missing Value Source: NWS Daily Summary

Daily Weather History Graph

Daily Weather History Graph

Search for Another Location

Airport or City:

Trip Planner

Search our weather history database for the weather conditions in past years. The results will help you decide how hot, cold, wet, or windy it might be!

Date:

Astronomy

Feb. 28, 2015 Rise Set
Actual Time 6:32 AM EST 5:44 PM EST
Civil Twilight 6:04 AM EST 6:12 PM EST
Nautical Twilight 5:32 AM EST 6:44 PM EST
Astronomical Twilight 5:00 AM EST 7:16 PM EST
Moon 1:22 PM EST (2/28) 3:12 AM EST (2/28)
Length of Visible Light 12h 08m
Length of Day
11h 12m
Waxing Gibbous, 78% of the Moon is Illuminated
Feb 28
Waxing Gibbous
Mar 5
Full
Mar 13
Last Quarter
Mar 20
New
Mar 27
First Quarter

Hourly Weather History & Observations

Time (EST) Temp. Windchill Dew Point Humidity Pressure Visibility Wind Dir Wind Speed Gust Speed Precip Events Conditions
12:53 AM 3.9 °F - -2.9 °F 73% 30.66 in 9.0 mi Calm Calm - N/A   Clear
1:53 AM 1.9 °F - -7.1 °F 66% 30.67 in 10.0 mi Calm Calm - N/A   Clear
2:53 AM -2.0 °F - -7.1 °F 79% 30.67 in 10.0 mi Calm Calm - N/A   Clear
3:53 AM -0.9 °F - -7.1 °F 75% 30.69 in 9.0 mi Calm Calm - N/A   Clear
4:53 AM -4.0 °F - -9.0 °F 79% 30.72 in 10.0 mi Calm Calm - N/A   Clear
5:53 AM -5.1 °F - -11.9 °F 72% 30.75 in 10.0 mi Calm Calm - N/A   Clear
6:53 AM -5.1 °F - -11.9 °F 72% 30.78 in 10.0 mi Calm Calm - N/A   Clear
7:53 AM -0.9 °F - -5.1 °F 83% 30.81 in 9.0 mi Calm Calm - N/A   Clear
8:53 AM 10.0 °F - -0.0 °F 64% 30.82 in 10.0 mi Calm Calm - N/A   Clear
9:53 AM 16.0 °F 10.4 °F 1.0 °F 52% 30.82 in 10.0 mi NE 3.5 mph - N/A   Clear
10:53 AM 19.0 °F - -0.0 °F 43% 30.82 in 10.0 mi Calm Calm - N/A   Clear
11:53 AM 21.0 °F - -0.0 °F 40% 30.80 in 10.0 mi Calm Calm - N/A   Clear
12:53 PM 23.0 °F - -0.0 °F 37% 30.78 in 10.0 mi Calm Calm - N/A   Clear
1:53 PM 25.0 °F 18.1 °F 1.0 °F 36% 30.75 in 10.0 mi SSW 5.8 mph - N/A   Clear
2:53 PM 27.0 °F - 1.9 °F 34% 30.74 in 10.0 mi Calm Calm - N/A   Clear
3:53 PM 28.9 °F - -0.0 °F 29% 30.73 in 10.0 mi Calm Calm - N/A   Clear
4:53 PM 28.0 °F - -0.9 °F 29% 30.72 in 10.0 mi Calm Calm - N/A   Clear
5:53 PM 26.1 °F - -0.0 °F 32% 30.73 in 10.0 mi Calm Calm - N/A   Clear
6:53 PM 18.0 °F - 3.9 °F 54% 30.73 in 10.0 mi Calm Calm - N/A   Clear
7:53 PM 16.0 °F - 5.0 °F 62% 30.74 in 10.0 mi Calm Calm - N/A   Clear
8:53 PM 12.0 °F - 1.0 °F 61% 30.74 in 10.0 mi Calm Calm - N/A   Clear
9:53 PM 8.1 °F - -0.9 °F 67% 30.74 in 10.0 mi Calm Calm - N/A   Clear
10:53 PM 6.1 °F - -2.9 °F 67% 30.74 in 10.0 mi Calm Calm - N/A   Clear
11:53 PM 5.0 °F - -2.0 °F 73% 30.72 in 8.0 mi Calm Calm - N/A   Clear